Time,TemperatureF,DewpointF,PressureIn,WindDirection,WindDirectionDegrees,WindSpeedMPH,WindSpeedGustMPH,Humidity,HourlyPrecipIn,Conditions,Clouds,dailyrainin,SoftwareType,DateUTC
2013-11-20 00:12:00,50.0,34.0,29.65,SW,216,4.0,16.0,53,0.00,,,0.00,,2013-11-20 06:12:00,
2013-11-20 00:21:00,50.0,33.0,29.65,SW,214,9.0,17.0,52,0.00,,,0.00,,2013-11-20 06:21:00,
2013-11-20 00:42:00,50.0,33.0,29.65,SSE,167,9.0,20.0,51,0.00,,,0.00,,2013-11-20 06:42:00,
2013-11-20 00:52:00,50.0,32.0,29.65,South,188,10.0,19.0,50,0.00,,,0.00,,2013-11-20 06:52:00,
2013-11-20 01:11:00,50.0,32.0,29.66,South,172,8.0,15.0,50,0.00,,,0.00,,2013-11-20 07:11:00,
2013-11-20 01:21:00,50.0,32.0,29.66,South,169,7.0,17.0,50,0.00,,,0.00,,2013-11-20 07:21:00,
2013-11-20 01:42:00,49.0,32.0,29.67,SSE,160,6.0,13.0,51,0.00,,,0.00,,2013-11-20 07:42:00,
2013-11-20 01:52:00,49.0,32.0,29.66,SSW,205,13.0,23.0,51,0.00,,,0.00,,2013-11-20 07:52:00,
2013-11-20 02:21:00,49.0,32.0,29.67,South,182,10.0,18.0,51,0.00,,,0.00,,2013-11-20 08:21:00,
2013-11-20 02:42:00,49.0,32.0,29.67,South,173,9.0,20.0,51,0.00,,,0.00,,2013-11-20 08:42:00,
2013-11-20 02:52:00,49.0,32.0,29.70,SE,139,3.0,19.0,51,0.00,,,0.00,,2013-11-20 08:52:00,
2013-11-20 03:12:00,49.0,32.0,29.69,SSW,193,11.0,19.0,52,0.00,,,0.00,,2013-11-20 09:12:00,
2013-11-20 03:21:00,48.0,31.0,29.69,South,173,8.0,17.0,52,0.00,,,0.00,,2013-11-20 09:21:00,
2013-11-20 03:43:00,48.0,31.0,29.70,South,181,7.0,12.0,52,0.00,,,0.00,,2013-11-20 09:43:00,
2013-11-20 03:54:00,48.0,31.0,29.70,SSW,201,6.0,13.0,52,0.00,,,0.00,,2013-11-20 09:54:00,
2013-11-20 04:12:00,48.0,32.0,29.70,South,184,5.0,15.0,53,0.00,,,0.00,,2013-11-20 10:12:00,
2013-11-20 04:23:00,47.0,31.0,29.70,South,188,4.0,11.0,53,0.00,,,0.00,,2013-11-20 10:23:00,
2013-11-20 04:43:00,47.0,31.0,29.70,South,184,2.0,8.0,54,0.00,,,0.00,,2013-11-20 10:43:00,
2013-11-20 04:53:00,47.0,32.0,29.70,South,185,4.0,8.0,55,0.00,,,0.00,,2013-11-20 10:53:00,
2013-11-20 05:12:00,47.0,32.0,29.71,South,178,3.0,11.0,55,0.00,,,0.00,,2013-11-20 11:12:00,
2013-11-20 05:22:00,47.0,32.0,29.71,SW,216,2.0,6.0,55,0.00,,,0.00,,2013-11-20 11:22:00,
2013-11-20 05:43:00,46.0,31.0,29.71,South,179,2.0,6.0,56,0.00,,,0.00,,2013-11-20 11:43:00,
2013-11-20 05:52:00,46.0,32.0,29.72,South,178,2.0,6.0,57,0.00,,,0.00,,2013-11-20 11:52:00,
2013-11-20 06:11:00,45.0,32.0,29.73,SSW,194,0.0,4.0,59,0.00,,,0.00,,2013-11-20 12:11:00,
2013-11-20 06:22:00,45.0,32.0,29.73,SSW,194,0.0,3.0,59,0.00,,,0.00,,2013-11-20 12:22:00,
2013-11-20 06:42:00,44.0,31.0,29.73,SSW,194,0.0,1.0,59,0.00,,,0.00,,2013-11-20 12:42:00,
2013-11-20 06:52:00,44.0,31.0,29.74,SSW,195,0.0,1.0,60,0.00,,,0.00,,2013-11-20 12:52:00,
2013-11-20 07:11:00,44.0,31.0,29.74,SSW,195,0.0,2.0,60,0.00,,,0.00,,2013-11-20 13:11:00,
2013-11-20 07:21:00,43.0,30.0,29.75,SSW,195,0.0,0.0,61,0.00,,,0.00,,2013-11-20 13:21:00,
2013-11-20 09:54:00,34.0,22.0,29.82,WSW,257,4.0,14.0,62,0.00,,,0.00,,2013-11-20 15:54:00,
2013-11-20 16:53:00,31.0,20.0,29.89,NNW,333,3.0,12.0,64,0.00,,,0.00,,2013-11-20 22:53:00,
2013-11-20 17:12:00,31.0,21.0,29.90,West,278,3.0,10.0,65,0.00,,,0.00,,2013-11-20 23:12:00,
2013-11-20 17:21:00,31.0,21.0,29.90,West,275,4.0,10.0,65,0.00,,,0.00,,2013-11-20 23:21:00,
2013-11-20 17:42:00,30.0,20.0,29.91,WNW,295,3.0,11.0,65,0.00,,,0.00,,2013-11-20 23:42:00,
2013-11-20 17:52:00,30.0,19.0,29.93,WNW,298,5.0,9.0,64,0.00,,,0.00,,2013-11-20 23:52:00,
2013-11-20 18:11:00,30.0,20.0,29.94,NW,308,1.0,11.0,65,0.00,,,0.00,,2013-11-21 00:11:00,
2013-11-20 18:22:00,29.0,19.0,29.94,WNW,285,2.0,9.0,65,0.00,,,0.00,,2013-11-21 00:22:00,
2013-11-20 18:42:00,29.0,19.0,29.96,North,355,6.0,13.0,66,0.00,,,0.00,,2013-11-21 00:42:00,
2013-11-20 18:52:00,29.0,19.0,29.96,NW,325,3.0,13.0,66,0.00,,,0.00,,2013-11-21 00:52:00,
2013-11-20 19:11:00,29.0,19.0,29.97,NNE,17,4.0,15.0,67,0.00,,,0.00,,2013-11-21 01:11:00,
2013-11-20 19:22:00,29.0,19.0,29.98,NW,326,4.0,15.0,67,0.00,,,0.00,,2013-11-21 01:22:00,
2013-11-20 19:42:00,29.0,19.0,29.98,North,351,5.0,14.0,67,0.00,,,0.00,,2013-11-21 01:42:00,
2013-11-20 19:52:00,29.0,19.0,30.00,WNW,290,6.0,14.0,67,0.00,,,0.00,,2013-11-21 01:52:00,
2013-11-20 20:21:00,29.0,19.0,30.02,NNW,340,7.0,14.0,67,0.00,,,0.00,,2013-11-21 02:21:00,
2013-11-20 23:23:00,23.0,13.0,30.14,WNW,298,5.0,18.0,66,0.00,,,0.00,,2013-11-21 05:23:00,
2013-11-20 23:52:00,22.0,12.0,30.14,WNW,300,7.0,16.0,66,0.00,,,0.00,,2013-11-21 05:52:00,